Flag for Germany Weather past 2 weeks in Gladbeck, North Rhine-Westphalia, Germany

50 °F

Rain. Low clouds.

Feels Like: 46 °F
Forecast: 45 / 54 °F
Wind: 9 mph from Southwest

Location: Duesseldorf

Current Time: Nov 30, 2015 at 2:49:04 PM

Latest Report: Nov 30, 2015 at 2:00 PM

Visibility: 3 mi

Pressure: 29.98 "Hg

Humidity: 96%

Dew point: 49 °F

Location of GladbeckLocation

Historic Weather in Gladbeck — Graph


Gladbeck temperature yesterday

Maximum temperature yesterday: 53 °F (at 4:00 PM)
Minimum temperature yesterday: 44 °F (at 2:00 AM)
Average temperature yesterday: 50 °F

Past Weeks' High & Low Weather Summary

High60 °F (Nov 17, 11:00 PM)99% (Nov 26, 9:00 AM)30.28 "Hg (Nov 26, 9:00 AM)
Low32 °F (Nov 22, 8:00 AM)62% (Nov 18, 4:00 AM)29.38 "Hg (Nov 21, 1:00 PM)
Average45 °F82%29.87 "Hg
* Reported Nov 15 2:00 PM — Nov 30 2:00 PM, Gladbeck, Weather by CustomWeather, © 2015

Note: Actual official high and low records may vary slightly from our data, if they occured in-between our weather recording intervals... More about our weather records


Gladbeck weather history for previous 24 hours

Time TempWeatherWind HumidityBarometerVisibility
2:00 PM
Mon, Nov 30
50 °FRain. Low clouds.9 mph96%29.98 "Hg3 mi
1:00 PM47 °FLight rain. Low clouds.6 mph96%30.01 "Hg4 mi
12:00 PM46 °FLight rain. Overcast.5 mph90%30.06 "Hg7 mi
11:00 AM46 °FLight rain. Overcast.7 mph80%30.09 "Hg15 mi
10:00 AM46 °FOvercast.5 mph77%30.10 "Hg22 mi
9:00 AM45 °FOvercast.5 mph78%30.11 "Hg22 mi
8:00 AM47 °FOvercast.6 mph69%30.10 "Hg25 mi
7:00 AM47 °FOvercast.6 mph69%30.07 "Hg22 mi
4:00 AM48 °FOvercast.7 mph73%29.98 "Hg19 mi
3:00 AM49 °FOvercast.8 mph79%29.96 "Hg17 mi
1:00 AM48 °FOvercast.8 mph92%29.88 "Hg17 mi
10:00 PM
Sun, Nov 29
52 °FLight rain. Overcast.17 mph85%29.78 "Hg11 mi
9:00 PM51 °FOvercast.17 mph87%29.78 "Hg12 mi
8:00 PM51 °FLight rain. Overcast.15 mph88%29.78 "Hg12 mi
7:00 PM53 °FLight rain. Overcast.15 mph78%29.79 "Hg19 mi
6:00 PM52 °FOvercast.14 mph80%29.79 "Hg19 mi
5:00 PM51 °FRain. Overcast.13 mph86%29.79 "Hg9 mi
4:00 PM53 °FOvercast.14 mph78%29.78 "Hg19 mi
3:00 PM51 °FLight rain. Low clouds.13 mph88%29.78 "Hg9 mi
2:00 PM50 °FLight rain. Low clouds.12 mph92%29.79 "Hg5 mi
Weather by CustomWeather, © 2015

See weather overviewHow to use our weather pages